TUBIN
1 48900U 21059X   25243.58048991  .00084319  00000-0  75251-3 0  9996
2 48900  97.6780  60.0272 0002496 273.2659  86.8316 15.68156057233017
LEDSAT
1 49069U 21073D   25243.21179791  .00201142  00000-0  13150-2 0  9996
2 49069  97.3792 328.9218 0006258 147.7412 212.4237 15.75220302224373
CUTE
1 49263U 21088D   25243.19332259  .00032037  00000-0  55816-3 0  9996
2 49263  97.4451 322.0316 0005053 294.0454  66.0269 15.50677100217218
TeikyoSat 4
1 49396U 21102B   25243.57267922  .00003728  00000-0  24621-3 0  9991
2 49396  97.4050 278.9957 0011808 201.7971 158.2757 15.07956566209051
Z-Sat
1 49399U 21102E   25243.59186997  .00007504  00000-0  40327-3 0  9995
2 49399  97.3744 282.6376 0018225 170.8902 189.2665 15.15033359209541
KOSEN 1
1 49402U 21102H   25242.98505155  .00011358  00000-0  50879-3 0  9998
2 49402  97.3643 286.1039 0016657 145.9850 214.2458 15.21284491209812
HO-113
1 50466U 21131B   25243.60680194  .00000945  00000-0  30824-3 0  9997
2 50466  98.5087 332.5517 0003187 237.6416 122.4464 14.40900468193400
SNUGLITE 2
1 52899U 22065F   25243.57135667  .00002230  00000-0  44039-3 0  9994
2 52899  98.1802  24.7963 0007038 204.9286 155.1577 14.63393029168627
UmKA 1 (RS40S)
1 57172U 23091G   25243.58890412  .00009497  00000-0  49340-3 0  9992
2 57172  97.5507 298.5504 0015154  52.2610 307.9993 15.16208485120050
CubeBel-2 (EU11S)
1 57175U 23091K   25243.58571826  .00015831  00000-0  72041-3 0  9993
2 57175  97.5505 300.2288 0012778  58.4132 301.8348 15.20723558120164
ENSO
1 58470U 23185J   25243.62020821  .00137645  00000-0  13047-2 0  9993
2 58470  97.3643 321.9356 0005829 145.7480 214.4157 15.66472838 97987
EIRSAT-1
1 58472U 23185L   25243.48213661  .01432156  14140-2  15779-2 0  9997
2 58472  97.3403 326.1462 0008396 253.0795 106.9568 16.09953129 98259
SONATE-2
1 59112U 24043Q   25243.18005106  .00028697  00000-0  75841-3 0  9998
2 59112  97.5228  16.2073 0010614 174.9774 185.1579 15.38332474 83022
MO-122
1 60209U 24125G   25243.56107349  .00031304  00000-0  80982-3 0  9993
2 60209  97.2704  94.3671 0017179 193.3581 166.7212 15.38874727 64707
GRBBeta
1 60237U 24128C   25243.16910670  .00008127  00000-0  59078-3 0  9991
2 60237  61.9910 151.4613 0056522  75.3598 285.3750 15.03283053 62619
Curium One
1 60242U 24128H   25243.45625073  .00014093  00000-0  93422-3 0  9999
2 60242  61.9804 147.4427 0056409  72.1148 288.6085 15.06247042 62714
ROBUSTA-3A
1 60243U 24128J   25243.28663538  .00014450  00000-0  97221-3 0  9997
2 60243  61.9880 149.1538 0055759  69.6154 291.0915 15.05713377 62679
CatSat
1 60246U 24125J   25243.55483613  .00031850  00000-0  98660-3 0  9992
2 60246  97.2520  92.5940 0041314 156.2508 204.0653 15.32529673 62689
HYPERVIEW-1G (RS66S)
1 61772U 24199AP  25243.61981355  .00036476  00000-0  94983-3 0  9994
2 61772  97.3402 112.4294 0010598 250.2638 109.7465 15.38737308 89714
AO-123
1 61781U 24199AY  25243.57239410  .00011592  00000-0  40812-3 0  9991
2 61781  97.3424 110.2694 0013588 262.4866  97.4831 15.29384686 89568
ZIMSAT 2
1 61783U 24199BA  25243.58449694  .00069446  00000-0  13718-2 0  9996
2 61783  97.3362 113.7858 0009543 239.1828 120.8484 15.46856818 92958
HADES-R (SO-124)
1 62690U 25009CK  25243.18354592  .00069901  00000-0  20455-2 0  9995
2 62690  97.4033 323.9575 0003749 163.4974 196.6392 15.34982559 34792
HYDRA-T
1 62692U 25009CM  25243.54244946  .00076552  00000-0  22045-2 0  9995
2 62692  97.4028 324.3932 0003394 157.8391 202.2999 15.35458289 34859
JINJUSat 1B
1 63210U 25052A   25243.20281190  .00019156  00000-0  83221-3 0  9996
2 63210  97.4286 136.3197 0005629  53.6047 306.5708 15.22327646 25810
NUSHSAT 1
1 63211U 25052B   25243.44351161  .00022102  00000-0  94710-3 0  9999
2 63211  97.4277 136.5866 0005778  57.2765 302.9028 15.22763979 25850
TEVEL2-4
1 63213U 25052D   25243.60672147  .00021044  00000-0  91218-3 0  9993
2 63213  97.4194 136.4922 0005312  70.9074 289.2737 15.22385670 25875
TEVEL2-5
1 63214U 25052E   25243.60871946  .00021246  00000-0  92179-3 0  9993
2 63214  97.4196 136.4901 0005289  70.8240 289.3569 15.22352207 25876
TEVEL2-6
1 63215U 25052F   25243.61303376  .00020562  00000-0  89333-3 0  9990
2 63215  97.4197 136.4869 0005382  71.2830 288.8990 15.22311671 25877
TEVEL2-1
1 63217U 25052H   25243.24215491  .00020213  00000-0  88501-3 0  9990
2 63217  97.4172 136.0122 0005699  80.6179 279.5701 15.22049699 25810
TEVEL2-3
1 63218U 25052J   25243.43952214  .00020327  00000-0  88956-3 0  9993
2 63218  97.4175 136.2080 0005787  80.6981 279.4910 15.22063950 25848
TEVEL2-2
1 63219U 25052K   25243.44006125  .00020485  00000-0  89671-3 0  9996
2 63219  97.4173 136.2064 0005748  80.3202 279.8683 15.22053324 25844
TEVEL2-9
1 63237U 25052AD  25243.44122831  .00019622  00000-0  89120-3 0  9999
2 63237  97.4239 136.0422 0010062  87.4984 272.7404 15.20769467 25824
TEVEL2-7
1 63238U 25052AE  25243.18416957  .00019649  00000-0  89479-3 0  9992
2 63238  97.4237 135.7791 0010122  87.7720 272.4674 15.20676976 25789
TEVEL2-8
1 63239U 25052AF  25243.45109521  .00019518  00000-0  88944-3 0  9990
2 63239  97.4236 136.0311 0010141  87.6978 272.5419 15.20655419 25828
HYDRA-W
1 63490U 25052BL  25243.21567258  .00041180  00000-0  15273-2 0  9992
2 63490  97.4189 136.6814 0014203  83.2139 277.0716 15.27389543 25854
HADES-ICM (SO-125)
1 63492U 25052BN  25243.19457034  .00047742  00000-0  18066-2 0  9994
2 63492  97.4185 136.5716 0013850  87.9027 272.3797 15.26693549 25845
